[[{"header":{"parameterUnit":"m.s-1","parameterCategory":1,"la1":30.2991,"la2":30.254,"lo1":-89.0895,"lo2":-89.0444,"dy":0.0017,"dx":0.0017,"nx":28,"ny":28,"refTime":"2024-05-25T21:00:00:Z","depth":0,"parameterNumber":2,"parameterNumberName":"U-component_of_WINDS"},"data":[0,0,0,0,0,0,0,0,0,0,0,0,0,0,0,0,0,0,0,0,0,0,0,0,0,0,0,0,0,0,0,0,0,0,0,0,0,0,0,0,0,0,0,0,0,0,0,0,0,0,0,0,0,0,0,0,0,0,1.5871,1.5873,0,1.5981,1.5982,1.5983,1.6013,1.6013,1.6012,1.6011,1.6126,1.613,1.6133,0,0,0,0,0,0,0,0,0,0,0,0,0,1.5692,1.5695,1.5871,1.5873,1.5874,1.598,1.5982,1.5983,1.6013,1.6013,1.6012,1.6011,1.6125,1.6129,1.6134,0,0,0,0,0,0,0,0,0,0,0,0,0,1.5782,1.5696,1.5871,1.5902,1.5906,1.598,1.5982,1.5984,1.6014,1.6013,1.6012,1.6011,1.6123,1.6129,1.6134,1.6187,0,0,1.6151,1.6153,0,0,0,0,0,0,0,0,1.5777,1.5789,1.5896,1.59,1.5904,1.5982,1.5961,1.6052,1.6014,1.5973,1.6011,1.601,1.6079,1.6088,1.6111,1.6192,1.6197,1.6151,1.6155,1.6157,1.6159,0,0,0,0,0,0,0,1.5771,1.5784,1.5915,1.5897,1.5903,1.5911,1.5923,1.5978,1.603,1.5976,1.5979,1.5991,1.6081,1.6106,1.6114,1.6199,1.6151,1.6156,1.6159,1.6162,1.6329,1.633,0,0,0,0,0,0,1.5759,1.5779,1.5911,1.5918,1.5837,1.5915,1.5928,1.5958,1.6029,1.6039,1.5992,1.5992,1.6097,1.6107,1.6118,1.6184,1.6157,1.6162,1.6165,1.6328,1.6329,1.633,0,0,0,0,0,0,1.5755,1.577,1.5907,1.5849,1.5867,1.5919,1.5953,1.5961,1.5985,1.6041,1.6051,1.6007,1.6096,1.611,1.6169,1.6189,1.6165,1.6169,1.6326,1.6328,1.633,1.6317,0,0,0,0,0,0,1.5749,1.5769,1.5788,1.5849,1.587,1.5955,1.5954,1.5964,1.5994,1.5996,1.6058,1.6067,1.6097,1.6161,1.6175,1.6196,1.6174,1.6325,1.6327,1.6329,1.6316,1.6318,1.632,0,0,0,0,0,1.5743,1.5781,1.5789,1.5805,1.5896,1.5956,1.5968,1.6001,1.5996,1.6016,1.6052,1.6065,1.6184,1.6167,1.6182,1.6205,1.6324,1.6326,1.6329,1.6315,1.6317,1.632,0,0,0,0,0,0,1.5722,1.5789,1.5799,1.5858,1.5901,1.5961,1.5988,1.6002,1.6049,1.6048,1.6087,1.6101,1.6157,1.6187,1.6167,1.626,1.6254,1.626,1.6238,1.6241,1.6243,1.6235,1.6178,0,0,0,0,0,1.5724,1.5767,1.5824,1.587,1.5891,1.5936,1.5964,1.5985,1.6031,1.605,1.609,1.6136,1.6183,1.6214,1.6261,1.632,1.6335,1.6344,1.6346,1.6347,1.6352,1.6386,1.6391,1.6339,1.6339,1.6339,0,0,1.5729,1.5771,1.5796,1.5867,1.5903,1.5947,1.5951,1.5998,1.6031,1.6057,1.6115,1.6146,1.62,1.6259,1.6287,1.6286,1.6369,1.6351,1.6351,1.6355,1.6389,1.6394,1.6398,1.6341,1.634,1.634,0,0,1.576,1.5796,1.5839,1.5875,1.5929,1.5958,1.5968,1.6027,1.6048,1.6107,1.6127,1.6168,1.6249,1.6286,1.6316,1.6362,1.6375,1.6376,1.6386,1.6419,1.6423,1.6427,1.6443,1.6448,1.638,1.638,1.638,0,1.576,1.5826,1.5859,1.5905,1.5936,1.5961,1.6004,1.6038,1.6105,1.6126,1.6123,1.6226,1.6263,1.6332,1.6343,1.6366,1.6379,1.6369,1.6419,1.6424,1.6428,1.6444,1.645,1.638,1.638,1.638,1.638,0,1.5823,1.5869,1.5897,1.596,1.5994,1.6039,1.6079,1.611,1.6128,1.6158,1.6218,1.6264,1.6321,1.6339,1.6357,1.641,1.6407,1.6412,1.6407,1.6432,1.6447,1.6454,1.638,1.638,1.638,1.638,0,0,1.5844,1.5924,1.5934,1.5963,1.6025,1.6061,1.6107,1.6162,1.6188,1.6233,1.6273,1.6341,1.6345,1.6379,1.6402,1.643,1.6464,1.6432,1.6433,1.6436,1.6525,1.6521,1.6527,1.6473,1.6475,1.6476,1.652,0,1.5883,1.5965,1.5996,1.6063,1.6106,1.6131,1.6171,1.6214,1.6243,1.6285,1.6318,1.6365,1.6367,1.6388,1.6417,1.6453,1.6482,1.6451,1.6511,1.6513,1.6497,1.6535,1.6532,1.6571,1.6526,1.6528,1.6528,0,1.5939,1.5984,1.6055,1.6112,1.6131,1.6166,1.6219,1.6258,1.6307,1.6327,1.6364,1.6386,1.6435,1.6427,1.6497,1.6475,1.6501,1.6523,1.6525,1.6532,1.6522,1.6543,1.6585,1.6591,1.6538,1.6538,1.6537,0,1.5947,1.6026,1.6078,1.6103,1.617,1.6194,1.6223,1.6271,1.6302,1.6349,1.6369,1.6421,1.645,1.649,1.6525,1.6516,1.6591,1.6586,1.6609,1.6608,1.6624,1.6622,1.667,1.6641,1.6641,1.6641,1.6641,0,1.5987,1.6029,1.6083,1.6115,1.6164,1.62,1.6248,1.6279,1.6321,1.6361,1.6386,1.6422,1.6467,1.6509,1.6537,1.6591,1.6603,1.6621,1.6628,1.6619,1.6616,1.6637,1.6635,1.6643,1.6642,1.6642,1.6642,0,1.6003,1.6041,1.61,1.6159,1.6175,1.6208,1.6259,1.6292,1.6322,1.6372,1.6386,1.6434,1.6486,1.6525,1.6592,1.6611,1.6667,1.6675,1.665,1.6654,1.6675,1.6672,1.6737,1.6747,1.6711,1.6712,1.6712,0,1.6026,1.606,1.6122,1.615,1.6179,1.6223,1.6255,1.6292,1.6324,1.6382,1.6408,1.6461,1.6506,1.6587,1.6629,1.668,1.6689,1.6708,1.6697,1.6687,1.6689,1.6687,1.669,1.671,1.671,1.671,1.671,0,1.6063,1.608,1.6124,1.6175,1.6212,1.6254,1.6296,1.6318,1.6363,1.6397,1.645,1.6484,1.6552,1.6605,1.6661,1.6692,1.6709,1.6713,1.6721,1.6712,1.6697,1.6705,1.6654,1.6712,1.6711,1.6711,1.6711,1.6711,1.6084,1.6114,1.6163,1.6211,1.6247,1.6286,1.632,1.6355,1.6399,1.6457,1.6476,1.6531,1.6579,1.6656,1.6687,1.6731,1.6731,1.6743,1.6746,1.6748,1.6747,1.669,1.6741,1.6741,1.6741,1.6741,1.6741,0,1.6121,1.6154,1.6198,1.6256,1.6295,1.6307,1.6354,1.6386,1.6433,1.6477,1.652,1.658,1.6631,1.6677,1.673,1.6756,1.6766,1.6769,1.6768,1.6775,1.6744,1.6732,1.6761,1.6761,1.6761,1.6761,1.6761,1.6761,1.6145,1.6198,1.6221,1.6292,1.6324,1.6377,1.6403,1.644,1.6475,1.6541,1.6584,1.6613,1.6658,1.6714,1.6762,1.6774,1.6793,1.6794,1.6808,1.6779,1.6777,1.6774,1.6763,1.6798,1.6798,1.6835,1.6836,1.6836]},{"header":{"parameterUnit":"m.s-1","parameterCategory":1,"la1":30.2991,"la2":30.254,"lo1":-89.0895,"lo2":-89.0444,"dy":0.0017,"dx":0.0017,"nx":28,"ny":28,"refTime":"2024-05-25T21:00:00:Z","depth":0,"parameterNumber":3,"parameterNumberName":"V-component_of_WINDS"},"data":[0,0,0,0,0,0,0,0,0,0,0,0,0,0,0,0,0,0,0,0,0,0,0,0,0,0,0,0,0,0,0,0,0,0,0,0,0,0,0,0,0,0,0,0,0,0,0,0,0,0,0,0,0,0,0,0,0,0,4.6696,4.6696,0,4.6703,4.6703,4.6703,4.6705,4.6705,4.6704,4.6704,4.671,4.6711,4.6711,0,0,0,0,0,0,0,0,0,0,0,0,0,4.6684,4.6684,4.6696,4.6696,4.6697,4.6703,4.6703,4.6703,4.6705,4.6705,4.6704,4.6704,4.671,4.6711,4.6711,0,0,0,0,0,0,0,0,0,0,0,0,0,4.669,4.6684,4.6696,4.6698,4.6698,4.6703,4.6703,4.6703,4.6705,4.6705,4.6704,4.6704,4.671,4.6711,4.6711,4.6715,0,0,4.6712,4.6712,0,0,0,0,0,0,0,0,4.6689,4.669,4.6698,4.6698,4.6698,4.6703,4.6701,4.6707,4.6705,4.6702,4.6704,4.6704,4.6708,4.6708,4.671,4.6715,4.6715,4.6712,4.6712,4.6712,4.6712,0,0,0,0,0,0,0,4.6689,4.669,4.6699,4.6698,4.6698,4.6698,4.6699,4.6702,4.6705,4.6702,4.6702,4.6703,4.6708,4.671,4.671,4.6715,4.6712,4.6712,4.6712,4.6713,4.6724,4.6724,0,0,0,0,0,0,4.6688,4.6689,4.6699,4.6699,4.6693,4.6698,4.6699,4.6702,4.6705,4.6706,4.6703,4.6703,4.6709,4.671,4.671,4.6715,4.6712,4.6713,4.6713,4.6724,4.6724,4.6724,0,0,0,0,0,0,4.6688,4.6689,4.6699,4.6694,4.6696,4.6699,4.6701,4.6702,4.6703,4.6706,4.6707,4.6704,4.6709,4.671,4.6714,4.6715,4.6713,4.6713,4.6723,4.6724,4.6724,4.6724,0,0,0,0,0,0,4.6688,4.6689,4.6691,4.6694,4.6696,4.6702,4.6701,4.6702,4.6704,4.6704,4.6707,4.6708,4.6709,4.6713,4.6714,4.6716,4.6713,4.6723,4.6724,4.6724,4.6724,4.6724,4.6725,0,0,0,0,0,4.6687,4.669,4.6691,4.6692,4.6698,4.6702,4.6703,4.6705,4.6704,4.6706,4.6707,4.6708,4.6715,4.6714,4.6714,4.6716,4.6723,4.6723,4.6724,4.6724,4.6724,4.6725,0,0,0,0,0,0,4.6686,4.6691,4.6691,4.6696,4.6698,4.6702,4.6704,4.6705,4.6708,4.6708,4.6709,4.671,4.6714,4.6715,4.6714,4.672,4.6719,4.6719,4.6719,4.6719,4.672,4.6719,4.6714,0,0,0,0,0,4.6686,4.6689,4.6693,4.6697,4.6698,4.6701,4.6703,4.6704,4.6707,4.6708,4.671,4.6713,4.6716,4.6718,4.672,4.6724,4.6725,4.6726,4.6726,4.6727,4.6727,4.6729,4.673,4.6725,4.6725,4.6725,0,0,4.6686,4.669,4.6691,4.6697,4.6699,4.6702,4.6702,4.6705,4.6708,4.6708,4.6712,4.6714,4.6717,4.6721,4.6723,4.6722,4.6728,4.6727,4.6727,4.6727,4.673,4.673,4.673,4.6725,4.6725,4.6725,0,0,4.6689,4.6692,4.6695,4.6697,4.6701,4.6703,4.6704,4.6708,4.6709,4.6713,4.6714,4.6717,4.6722,4.6724,4.6726,4.6729,4.673,4.673,4.6732,4.6734,4.6734,4.6735,4.6736,4.6737,4.6731,4.6731,4.6731,0,4.6689,4.6694,4.6696,4.67,4.6702,4.6704,4.6707,4.6709,4.6714,4.6715,4.6714,4.6721,4.6723,4.6728,4.6729,4.673,4.6731,4.673,4.6734,4.6735,4.6735,4.6736,4.6737,4.6731,4.6731,4.6731,4.6731,0,4.6694,4.6697,4.67,4.6704,4.6707,4.671,4.6713,4.6715,4.6716,4.6718,4.6722,4.6725,4.6728,4.673,4.673,4.6734,4.6734,4.6734,4.6733,4.6735,4.6737,4.6737,4.6731,4.6731,4.6731,4.6731,0,0,4.6695,4.6702,4.6703,4.6705,4.6709,4.6712,4.6716,4.6719,4.6721,4.6724,4.6727,4.6732,4.6732,4.6734,4.6735,4.6737,4.674,4.6736,4.6736,4.6737,4.6745,4.6745,4.6745,4.674,4.674,4.674,4.6744,0,4.6698,4.6705,4.6707,4.6713,4.6716,4.6718,4.6721,4.6724,4.6726,4.6729,4.6731,4.6734,4.6734,4.6735,4.6737,4.6739,4.6741,4.6739,4.6743,4.6743,4.6742,4.6746,4.6746,4.675,4.6745,4.6745,4.6745,0,4.6703,4.6706,4.6712,4.6717,4.6718,4.6721,4.6725,4.6728,4.6731,4.6733,4.6735,4.6736,4.674,4.6739,4.6744,4.6742,4.6743,4.6745,4.6745,4.6745,4.6744,4.6747,4.6751,4.6751,4.6746,4.6746,4.6746,0,4.6703,4.671,4.6714,4.6716,4.6721,4.6723,4.6726,4.6729,4.6731,4.6735,4.6736,4.674,4.6742,4.6744,4.6746,4.6745,4.6751,4.675,4.6752,4.6752,4.6753,4.6753,4.6758,4.6754,4.6754,4.6754,4.6754,0,4.6707,4.671,4.6715,4.6717,4.6721,4.6724,4.6728,4.673,4.6733,4.6736,4.6738,4.6741,4.6743,4.6746,4.6748,4.6752,4.6752,4.6753,4.6754,4.6753,4.6753,4.6754,4.6754,4.6754,4.6754,4.6754,4.6754,0,4.6708,4.6711,4.6716,4.6721,4.6722,4.6725,4.6729,4.6732,4.6734,4.6738,4.6739,4.6742,4.6746,4.6748,4.6753,4.6754,4.6758,4.6758,4.6757,4.6757,4.6759,4.6759,4.6765,4.6766,4.6761,4.6762,4.6762,0,4.671,4.6713,4.6718,4.672,4.6723,4.6727,4.6729,4.6732,4.6735,4.6739,4.6741,4.6745,4.6748,4.6754,4.6757,4.676,4.676,4.6762,4.6761,4.676,4.6761,4.676,4.6761,4.6762,4.6763,4.6763,4.6763,0,4.6713,4.6714,4.6718,4.6723,4.6726,4.6729,4.6733,4.6735,4.6738,4.6741,4.6745,4.6748,4.6752,4.6756,4.676,4.6762,4.6763,4.6763,4.6764,4.6763,4.6762,4.6763,4.6758,4.6763,4.6763,4.6763,4.6763,4.6763,4.6714,4.6717,4.6722,4.6726,4.6729,4.6732,4.6735,4.6738,4.6742,4.6746,4.6748,4.6752,4.6755,4.6761,4.6763,4.6766,4.6766,4.6767,4.6767,4.6767,4.6767,4.6762,4.6767,4.6767,4.6767,4.6767,4.6767,0,4.6718,4.6721,4.6725,4.673,4.6733,4.6734,4.6738,4.6741,4.6745,4.6748,4.6752,4.6757,4.676,4.6763,4.6767,4.6769,4.677,4.677,4.677,4.6771,4.6767,4.6766,4.677,4.677,4.677,4.677,4.677,4.677,4.672,4.6725,4.6727,4.6733,4.6736,4.6741,4.6743,4.6746,4.6749,4.6754,4.6758,4.676,4.6763,4.6767,4.6771,4.6772,4.6773,4.6774,4.6774,4.6771,4.6771,4.677,4.677,4.6774,4.6774,4.6777,4.6777,4.6778]}]]